User: anonymous   Login
Location: Caltech
(34.1382°N, 118.1253°W)
Time: 17:22:44
(UTC-08:00)
Language:

Hubble Space Telescope - Orbit

View from above orbital plane
View from above orbital plane
View from above satellite
View from above satellite

Ground track
Ground track

The orbit data is extracted from the following two-line orbital elements,

1 20580U 90037B   16038.42540797  .00001704  00000-0  96362-4 0  9992
2 20580  28.4709  42.1085 0002656 240.0077 239.5257 15.08124532215356
Epoch (UTC): 07 February 2016 10:12:35
Eccentricity: 0.0002656
inclination: 28.4709°
perigee height: 540 km
apogee height: 544 km
right ascension of ascending node: 42.1085°
argument of perigee: 240.0077°
revolutions per day: 15.08124532
mean anomaly at epoch: 239.5257°
orbit number at epoch: 21535

The dashed part of the orbit path shows where the satellite is in the earth's shadow,  

DLR